YAOGAN-30 S (45461 NORAD) Tracking and Keplerian Element Data

This shows tracking and keplerian element data for the satellite.

Feedback or suggestion? Click here.




ElementValue
Catalog45461
NameYAOGAN-30 S
Epoch Orbit55
Epoch Day88.02012956
Epoch Year2020
RAAN190.311
Inclination34.9959
Eccentricity0.0008728
Argument of Perigee300.0754
Mean Anonmoly59.9088
Mean Motion14.90477661
Decay Rate3.97E-06
L11 45461U 20021B 20088.02012956 .00000397 00000-0 42624-4 0 9999
L22 45461 34.9959 190.3110 0008728 300.0754 59.9088 14.90477661 554

Live tracking and technical data element details for YAOGAN-30 S (NORAD 45461). YAOGAN-30 S can be tracked NOW for your location showing map with azimuth and elevation plus other details from your city location.

Track the satellite on the map from your city or location and see movement details for azimuth, elevation, latitude, longitude, range, height, and movement on the map or in text.







IsCatalogInMostPopularTable: catalog: 45461, numindb: -1

Insert: records affected: 1


GetName: 45461 YAOGAN-30 S

Hit Count: inserted at: Tue, 31 Mar 2020 12:25:27 GMT